Miscellaneous Local Product
Issued by NWS North Platte, NE

Home | Current Version | Previous Version | Text Only | Print | Product List | Glossary On
Versions: 1 2 3 4 5 6 7 8 9 10 11 12 13 14 15 16 17 18 19 20 21 22 23 24 25 26 27 28 29 30 31 32 33 34 35 36 37 38 39 40 41 42 43 44 45 46 47 48 49 50
602
AXUS43 KLBF 192310
MISLBF


WESTERN AND NORTH CENTRAL NEBRASKA HOURLY WEATHER ROUNDUP
NATIONAL WEATHER SERVICE NORTH PLATTE NE
600 PM CDT THU OCT 19 2017

NOTE: "FAIR" INDICATES FEW OR NO CLOUDS BELOW 12,000 FEET WITH NO
SIGNIFICANT WEATHER AND/OR OBSTRUCTIONS TO VISIBILITY.

NOTE: STATIONS NOT REPORTING VARIABLES SUCH AS SKY/WEATHER OR
PRESSURE ARE PROVIDED BY RAWS AND APRS NETWORKS AND ARE NOT UNDER
NATIONAL WEATHER SERVICE QUALITY CONTROL.

...OBSERVATIONS IN AND NEAR THE EASTERN PANHANDLE OF NEBRASKA...

CITY           SKY/WX    TMP DP  RH WIND       PRES   REMARKS
PINE RIDGE     CLEAR     81  24  12 S10       29.81F
GORDON         FAIR      79  31  17 S10       29.83F
CHADRON        SUNNY     82  18   9 S15       29.79S
ALLIANCE       SUNNY     78  33  19 S10       29.85F
SIDNEY         CLOUDY    75  32  20 S13       29.90S
CRESCENT LAKE    N/A     78  37  22 S10G17      N/A
$$

...OBSERVATIONS IN NORTHERN NEBRASKA AND FAR SOUTHERN SOUTH DAKOTA...

CITY           SKY/WX    TMP DP  RH WIND       PRES   REMARKS
WINNER         FAIR      80  42  25 S20G26    29.79F
VALENTINE      CLEAR     82  36  19 S18       29.82F
THEDFORD       CLEAR     78  44  29 S15G25    29.89F
AINSWORTH      CLEAR     75  45  34 S13       29.87S
O`NEILL        CLEAR     74  48  39 S10       29.90S
ORD            CLEAR     77  46  33 S10       29.90F
BROKEN BOW     CLEAR     76  49  38 S12       29.91F
VALENTINE NWR    N/A     81  36  19 S13G20      N/A
HALSEY           N/A     79  43  27 S9G18       N/A
BUTTE            N/A     75  47  37 SE12G20     N/A
CHAMBERS         N/A     71  46  41 CALM        N/A
EWING            N/A     76  48  37 S6          N/A
$$

...OBSERVATIONS IN SOUTHWEST NEBRASKA AND FAR NORTHEAST COLORADO...

CITY           SKY/WX    TMP DP  RH WIND       PRES   REMARKS
HOLYOKE        FAIR      79  37  22 S14G20    29.90R
IMPERIAL       SUNNY     77  40  26 S15       29.90S
OGALLALA       CLEAR     81  40  23 S12G21    29.88S
NORTH PLATTE   CLEAR     77  50  38 S12       29.89F
MCCOOK         CLEAR     79  45  29 S17G26    29.91S
LEXINGTON      CLEAR     78  48  35 S13       29.92S
STAPLETON        N/A     76  49  38 CALM        N/A
GOTHENBURG       N/A     80  46  29 S10         N/A
CALLAWAY         N/A     78  49  35 S15         N/A
$$

...OBSERVATIONS IN CENTRAL LINCOLN COUNTY AREA...

CITY           SKY/WX    TMP DP  RH WIND       PRES   REMARKS
N.P. AIRPORT   CLEAR     77  50  38 S12       29.89F
N.P. DOWNTOWN    N/A     78  49  36 CALM        N/A
N.P. SOUTHEAST   N/A     78  48  34 S7G16       N/A
N.P. HILLCREST   N/A     77  49  37 S9G17       N/A
$$

...SOME OBSERVATIONS FROM AROUND THE REGION...

CITY           SKY/WX    TMP DP  RH WIND       PRES   REMARKS
DENVER         CLOUDY    70  30  22 N8        29.92F
LIMON          CLOUDY    70  30  22 SE16      29.98F
ASPEN          CLOUDY    66  21  18 N15G23    30.07S
LARAMIE        CLOUDY    66  20  17 SW13      30.02F
CASPER         CLOUDY    71  12  10 SW21G28   29.86F
CHEYENNE       CLOUDY    67  26  21 S12       29.97S
SCOTTSBLUFF    SUNNY     77  29  17 S12       29.84F
GRAND ISLAND   CLEAR     77  51  40 S13       29.94S
OMAHA          CLEAR     77  53  43 S13       29.97F
SIOUX FALLS    CLEAR     72  52  49 S13       29.89F
PIERRE         CLEAR     78  39  24 S9        29.72F
RAPID CITY     CLEAR     80  19  10 SW10      29.76S
BISMARCK       CLEAR     73  37  27 SE13      29.71F
KANSAS CITY    PTCLDY    72  53  51 S10       30.05S
HILL CITY      CLEAR     80  41  24 S12       29.94F
WICHITA        PTCLDY    75  45  34 S16       30.03S
DODGE CITY     CLEAR     77  41  27 S18G26    29.98S
OKLAHOMA CITY  MOCLDY    73  51  46 SE10      30.06S
DALLAS         MOCLDY    80  52  37 SE10      30.05S
AMARILLO       MOSUNNY   73  45  36 S22       30.02R
$$




USA.gov is the U.S. government's official web portal to all federal, state and local government web resources and services.